Cairns, Queensland

5:27 AM AEST on September 26, 2016 (GMT +1000)
Cairns

Weather History for 94287 - October, 2012

Change the Weather History Date:

Tuesday, October 16, 2012

  Actual Average Record
Temperature  
Mean Temperature 78 °F -  
Max Temperature 86 °F - - ()
Min Temperature 70 °F - - ()
Cooling Degree Days 13    
Growing Degree Days 28 (Base 50)    
Moisture  
Dew Point 59 °F    
Average Humidity 53    
Maximum Humidity 69    
Minimum Humidity 30    
Precipitation  
Precipitation 0.00 in - - ()
Sea Level Pressure  
Sea Level Pressure 30.05 in    
Wind  
Wind Speed 12 mph ()    
Max Wind Speed 22 mph    
Max Gust Speed -    
Visibility 7.2 miles    
Events      
T = Trace of Precipitation, MM = Missing Value Source: Averaged Metar Reports

Daily Weather History Graph

Daily Weather History Graph

Search for Another Location

Airport or City:

Trip Planner

Search our weather history database for the weather conditions in past years. The results will help you decide how hot, cold, wet, or windy it might be!

Date:

Astronomy

Oct. 16, 2012 Rise Set
Actual Time 5:48 AM AEST 6:17 PM AEST
Civil Twilight 5:26 AM AEST 6:39 PM AEST
Nautical Twilight 5:00 AM AEST 7:04 PM AEST
Astronomical Twilight 4:34 AM AEST 7:30 PM AEST
Moon 6:00 AM AEST (10/16) 7:03 PM AEST (10/16)
Length of Visible Light 13h 12m
Length of Day
12h 28m
New Moon, 0% of the Moon is Illuminated
Oct 16
New Moon
Oct 22
First Quarter
Oct 30
Full
Nov 7
Last Quarter
Nov 14
New

Hourly Weather History & Observations

Time (AEST) Temp. Heat Index Dew Point Humidity Pressure Visibility Wind Dir Wind Speed Gust Speed Precip Events Conditions
12:00 AM 73 °F - 61 °F 56% 30.10 in - South 10.4 mph - -  
12:00 AM 73.4 °F - 60.8 °F 65% 30.09 in 6.2 mi South 10.4 mph - N/A   Partly Cloudy
12:30 AM 73.4 °F - 60.8 °F 65% 30.09 in 6.2 mi SSE 11.5 mph - N/A   Partly Cloudy
1:00 AM 73 °F - 61 °F 57% 30.09 in - South 9.2 mph - -  
1:00 AM 73.4 °F - 60.8 °F 65% 30.06 in 6.2 mi South 9.2 mph - N/A   Partly Cloudy
1:30 AM 73.4 °F - 60.8 °F 65% 30.06 in 6.2 mi South 9.2 mph - N/A   Partly Cloudy
2:00 AM 71.6 °F - 60.8 °F 69% 30.06 in 6.2 mi South 10.4 mph - N/A   Partly Cloudy
2:30 AM 71.6 °F - 60.8 °F 69% 30.04 in 6.2 mi SSE 11.5 mph - N/A   Partly Cloudy
3:00 AM 72 °F - 60 °F 58% 30.05 in - SSE 10.4 mph - -  
3:00 AM 71.6 °F - 60.8 °F 69% 30.04 in 6.2 mi SSE 10.4 mph - N/A   Partly Cloudy
3:30 AM 71.6 °F - 60.8 °F 69% 30.04 in 6.2 mi SSE 11.5 mph - N/A   Partly Cloudy
4:00 AM 72 °F - 59 °F 55% 30.06 in - SSE 10.4 mph - -  
4:00 AM 71.6 °F - 59.0 °F 64% 30.04 in 6.2 mi SSE 10.4 mph - N/A   Partly Cloudy
4:30 AM 71.6 °F - 59.0 °F 64% 30.04 in 6.2 mi SSE 10.4 mph - N/A   Partly Cloudy
5:00 AM 71.6 °F - 59.0 °F 64% 30.04 in 6.2 mi SSE 10.4 mph - N/A   Partly Cloudy
5:30 AM 71.6 °F - 59.0 °F 64% 30.06 in 6.2 mi South 10.4 mph - N/A   Partly Cloudy
6:00 AM 72 °F - 58 °F 51% 30.06 in 19 mi South 10.4 mph - -   Partly Cloudy
6:00 AM 71.6 °F - 57.2 °F 60% 30.06 in 6.2 mi South 10.4 mph - N/A   Partly Cloudy
6:30 AM 73.4 °F - 57.2 °F 57% 30.06 in 6.2 mi South 11.5 mph - N/A   Partly Cloudy
7:00 AM 75 °F - 58 °F 44% 30.09 in - South 11.5 mph - -  
7:00 AM 75.2 °F - 57.2 °F 53% 30.06 in 6.2 mi South 11.5 mph - N/A   Partly Cloudy
7:30 AM 77.0 °F - 59.0 °F 54% 30.09 in 6.2 mi SSE 15.0 mph - N/A   Partly Cloudy
8:00 AM 77.0 °F - 59.0 °F 54% 30.09 in 6.2 mi SSE 15.0 mph - N/A   Partly Cloudy
8:30 AM 78.8 °F - 59.0 °F 51% 30.09 in 6.2 mi SSE 15.0 mph - N/A   Partly Cloudy
9:00 AM 79 °F - 58 °F 39% 30.11 in 19 mi SSE 19.6 mph - -   Partly Cloudy
9:00 AM 78.8 °F - 59.0 °F 51% 30.09 in 6.2 mi SSE 19.6 mph - N/A   Partly Cloudy
9:30 AM 78.8 °F - 57.2 °F 47% 30.09 in 6.2 mi SE 19.6 mph - N/A   Partly Cloudy
10:00 AM 82 °F - 56 °F 30% 30.11 in - SE 19.6 mph - -  
10:00 AM 82.4 °F 81.7 °F 55.4 °F 39% 30.09 in 6.2 mi SE 19.6 mph - N/A   Partly Cloudy
10:30 AM 82.4 °F 82.0 °F 57.2 °F 42% 30.09 in 6.2 mi SE 20.7 mph - N/A   Partly Cloudy
11:00 AM 86.0 °F 85.4 °F 59.0 °F 40% 30.06 in 6.2 mi SE 19.6 mph - N/A   Partly Cloudy
11:30 AM 84.2 °F 83.8 °F 59.0 °F 42% 30.06 in 6.2 mi SE 21.9 mph - N/A   Partly Cloudy
12:00 PM 83 °F - 58 °F 31% 30.06 in 19 mi ESE 19.6 mph - -   Partly Cloudy
12:00 PM 82.4 °F 82.0 °F 57.2 °F 42% 30.06 in 6.2 mi ESE 19.6 mph - N/A   Partly Cloudy
12:30 PM 84.2 °F 83.8 °F 59.0 °F 42% 30.04 in 6.2 mi SE 20.7 mph - N/A   Partly Cloudy
1:00 PM 84 °F - 60 °F 34% 30.05 in - SE 20.7 mph - -  
1:00 PM 84.2 °F 84.4 °F 60.8 °F 45% 30.04 in 6.2 mi SE 20.7 mph - N/A   Partly Cloudy
1:30 PM 84.2 °F 83.8 °F 59.0 °F 42% 30.04 in 6.2 mi SE 19.6 mph - N/A   Partly Cloudy
2:00 PM 82.4 °F 82.5 °F 59.0 °F 45% 30.01 in 6.2 mi SE 20.7 mph - N/A   Partly Cloudy
2:30 PM 84.2 °F 83.0 °F 55.4 °F 37% 30.01 in 6.2 mi ESE 19.6 mph - N/A   Partly Cloudy
3:00 PM 83 °F - 56 °F 30% 30.01 in 19 mi ESE 17.3 mph - -   Partly Cloudy
3:00 PM 82.4 °F 82.0 °F 57.2 °F 42% 30.01 in 6.2 mi ESE 17.3 mph - N/A   Partly Cloudy
3:30 PM 82.4 °F 82.0 °F 57.2 °F 42% 30.01 in 6.2 mi ESE 19.6 mph - N/A   Partly Cloudy
4:00 PM 82 °F - 57 °F 33% 30.01 in - ESE 20.7 mph - -  
4:00 PM 82.4 °F 82.0 °F 57.2 °F 42% 30.01 in 6.2 mi ESE 20.7 mph - N/A   Partly Cloudy
4:30 PM 80.6 °F 81.1 °F 59.0 °F 48% 30.01 in 6.2 mi SE 20.7 mph - N/A   Partly Cloudy
5:00 PM 80.6 °F 81.1 °F 59.0 °F 48% 30.01 in 6.2 mi SE 19.6 mph - N/A   Partly Cloudy
5:30 PM 78.8 °F - 59.0 °F 51% 30.01 in 6.2 mi SE 17.3 mph - N/A   Partly Cloudy
6:00 PM 76 °F - 60 °F 47% 30.02 in - SE 17.3 mph - -  
6:00 PM 77.0 °F - 59.0 °F 54% 30.01 in 6.2 mi SE 17.3 mph - N/A   Partly Cloudy
6:30 PM 75.2 °F - 60.8 °F 61% 30.01 in 6.2 mi SSE 18.4 mph - N/A   Partly Cloudy
7:00 PM 75 °F - 60 °F 49% 30.05 in - SE 16.1 mph - -  
7:00 PM 75.2 °F - 59.0 °F 57% 30.04 in 6.2 mi SE 16.1 mph - N/A   Partly Cloudy
7:30 PM 73.4 °F - 60.8 °F 65% 30.04 in 6.2 mi South 10.4 mph - N/A   Partly Cloudy
8:00 PM 73.4 °F - 60.8 °F 65% 30.04 in 6.2 mi South 8.1 mph - N/A   Partly Cloudy
8:30 PM 73.4 °F - 60.8 °F 65% 30.06 in 6.2 mi South 9.2 mph - N/A   Partly Cloudy
9:00 PM 73.4 °F - 60.8 °F 65% 30.06 in 6.2 mi South 9.2 mph - N/A   Partly Cloudy
9:30 PM 73.4 °F - 59.0 °F 61% 30.06 in 6.2 mi South 9.2 mph - N/A   Partly Cloudy
10:00 PM 73.4 °F - 60.8 °F 65% 30.06 in 6.2 mi South 9.2 mph - N/A   Partly Cloudy
10:30 PM 73.4 °F - 60.8 °F 65% 30.06 in 6.2 mi South 8.1 mph - N/A   Partly Cloudy
11:00 PM 73.4 °F - 60.8 °F 65% 30.06 in 6.2 mi SSE 8.1 mph - N/A   Partly Cloudy
11:30 PM 73.4 °F - 60.8 °F 65% 30.06 in 6.2 mi South 8.1 mph - N/A   Scattered Clouds